Tracking 30918 objects as of 2-Jul-2025
HD Live streaming from Space Station
objects crossing your sky now

THORAD AGENA D DEB

Track THORAD AGENA D DEB now!
10-day predictions


NORAD ID: 21721
Int'l Code: 1970-025QG
Perigee: 1,001.2 km
Apogee: 1,009.6 km
Inclination: 100.1 °
Period: 105.1 minutes
Semi major axis: 7376 km
RCS: 0.015 m2 (small)
Launch date: April 8, 1970
Source: United States (US)
Launch site: AIR FORCE WESTERN TEST RANGE (AFWTR)

Note: This is SATELLITE DEBRIS
Your satellite tracking list
SL-16 DEB
Track 1 satellite(s)




NASA's NSSDC Master Catalog

Two Line Element Set (TLE):
1 21721U 70025QG  25180.31125492  .00000787  00000-0  94615-3 0  9990
2 21721 100.0880 109.2190 0005708  82.0261  46.7428 13.70363418675851
Source of the keplerian elements: AFSPC